,,,PA_Meas_PMT16A,,PR_Meas_QMR101_102,,RH_Meas_QMH101,,SR_Meas_QMS101,,TA_Meas_QMH101,,GenWind,,GenWind,
date,time,status,PA,status,PR,status,RH,status,SR,status,TA,status,DirAvg,status,SpdAvg,
2008-04-27, 00:00:04,VALID,1004.12,VALID,0,VALID,89.0748,VALID,0,VALID,24.6417,VALID,332,VALID,0.267969,
2008-04-27, 00:01:04,VALID,1004.11,VALID,0,VALID,89.0138,VALID,0,VALID,24.6398,VALID,336,VALID,0.382031,
2008-04-27, 00:02:04,VALID,1004.1,VALID,0,VALID,89.0519,VALID,0,VALID,24.6417,VALID,354,VALID,0.318359,
2008-04-27, 00:03:04,VALID,1004.13,VALID,0,VALID,89.174,VALID,0,VALID,24.5796,VALID,354,VALID,0.198437,
2008-04-27, 00:04:04,VALID,1004.15,VALID,0,VALID,89.2503,VALID,0,VALID,24.562,VALID,354,VALID,0.200781,
2008-04-27, 00:05:04,VALID,1004.16,VALID,0,VALID,89.2503,VALID,0,VALID,24.562,VALID,352,VALID,0.169531,
2008-04-27, 00:06:04,VALID,1004.16,VALID,0,VALID,89.2884,VALID,0,VALID,24.5425,VALID,352,VALID,0.187109,
2008-04-27, 00:07:04,VALID,1004.18,VALID,0,VALID,89.38,VALID,0,VALID,24.5425,VALID,352,VALID,0.198047,
2008-04-27, 00:08:04,VALID,1004.17,VALID,0,VALID,89.4639,VALID,0,VALID,24.5249,VALID,352,VALID,0,
2008-04-27, 00:09:04,VALID,1004.21,VALID,0,VALID,89.6393,VALID,0,VALID,24.4628,VALID,352,VALID,0.00898437,
2008-04-27, 00:10:04,VALID,1004.22,VALID,0,VALID,89.7996,VALID,0.100563,VALID,24.4433,VALID,352,VALID,0.385156,
2008-04-27, 00:11:04,VALID,1004.24,VALID,0,VALID,89.8606,VALID,0,VALID,24.4433,VALID,352,VALID,0.157422,
2008-04-27, 00:12:04,VALID,1004.26,VALID,0,VALID,89.9979,VALID,0,VALID,24.4062,VALID,352,VALID,0.00898437,
2008-04-27, 00:13:04,VALID,1004.23,VALID,0,VALID,90.1734,VALID,0,VALID,24.3673,VALID,352,VALID,0,
2008-04-27, 00:14:04,VALID,1004.24,VALID,0,VALID,90.3412,VALID,0,VALID,24.3478,VALID,352,VALID,0,
2008-04-27, 00:15:04,VALID,1004.25,VALID,0,VALID,90.4099,VALID,0,VALID,24.3283,VALID,352,VALID,0,
2008-04-27, 00:16:04,VALID,1004.2,VALID,0,VALID,90.5472,VALID,0,VALID,24.2894,VALID,352,VALID,0,
2008-04-27, 00:17:04,VALID,1004.2,VALID,0,VALID,90.5777,VALID,0,VALID,24.3107,VALID,352,VALID,0,
2008-04-27, 00:18:04,VALID,1004.19,VALID,0,VALID,90.7226,VALID,0,VALID,24.2504,VALID,352,VALID,0,
2008-04-27, 00:19:04,VALID,1004.18,VALID,0,VALID,90.8905,VALID,0,VALID,24.1726,VALID,352,VALID,0,
2008-04-27, 00:20:04,VALID,1004.17,VALID,0,VALID,91.1041,VALID,0,VALID,24.1142,VALID,352,VALID,0,
2008-04-27, 00:21:04,VALID,1004.17,VALID,0,VALID,91.3101,VALID,0,VALID,24.0752,VALID,352,VALID,0,
2008-04-27, 00:22:04,VALID,1004.13,VALID,0,VALID,91.455,VALID,0,VALID,24.0168,VALID,352,VALID,0,
2008-04-27, 00:23:04,VALID,1004.12,VALID,0,VALID,91.6839,VALID,0,VALID,23.9584,VALID,352,VALID,0,
2008-04-27, 00:24:04,VALID,1004.1,VALID,0,VALID,91.8746,VALID,0.100563,VALID,23.8787,VALID,352,VALID,0,
2008-04-27, 00:25:04,VALID,1004.08,VALID,0,VALID,92.1645,VALID,0,VALID,23.8221,VALID,352,VALID,0,
2008-04-27, 00:26:04,VALID,1004.08,VALID,0,VALID,92.3781,VALID,0,VALID,23.7832,VALID,352,VALID,0,
2008-04-27, 00:27:04,VALID,1004.08,VALID,0,VALID,92.6375,VALID,0,VALID,23.7443,VALID,352,VALID,0,
2008-04-27, 00:28:04,VALID,1004.05,VALID,0,VALID,92.8358,VALID,0,VALID,23.6841,VALID,352,VALID,0,
2008-04-27, 00:29:04,VALID,1004.06,VALID,0,VALID,93.0342,VALID,0,VALID,23.6859,VALID,352,VALID,0,
2008-04-27, 00:30:04,VALID,1004.02,VALID,0,VALID,93.1639,VALID,0,VALID,23.6469,VALID,355,VALID,0,
2008-04-27, 00:31:04,VALID,1004.05,VALID,0,VALID,93.2402,VALID,0,VALID,23.6275,VALID,355,VALID,0,
2008-04-27, 00:32:04,VALID,1004.03,VALID,0,VALID,93.3622,VALID,0.100563,VALID,23.5673,VALID,355,VALID,0,
2008-04-27, 00:33:04,VALID,1004,VALID,0,VALID,93.4767,VALID,0,VALID,23.5691,VALID,355,VALID,0,
2008-04-27, 00:34:04,VALID,1004.03,VALID,0,VALID,93.6064,VALID,0,VALID,23.5302,VALID,355,VALID,0,
2008-04-27, 00:35:04,VALID,1003.99,VALID,0,VALID,93.6826,VALID,0,VALID,23.5089,VALID,355,VALID,0,
2008-04-27, 00:36:04,VALID,1003.93,VALID,0,VALID,93.8429,VALID,0,VALID,23.4912,VALID,355,VALID,0,
2008-04-27, 00:37:04,VALID,1003.96,VALID,0,VALID,93.9573,VALID,0,VALID,23.4894,VALID,355,VALID,0,
2008-04-27, 00:38:04,VALID,1003.91,VALID,0,VALID,93.9802,VALID,0,VALID,23.5107,VALID,355,VALID,0,
2008-04-27, 00:39:04,VALID,1003.89,VALID,0,VALID,93.9954,VALID,0,VALID,23.4718,VALID,355,VALID,0,
2008-04-27, 00:40:04,VALID,1003.88,VALID,0,VALID,94.1099,VALID,0.100563,VALID,23.4505,VALID,355,VALID,0,
2008-04-27, 00:41:04,VALID,1003.86,VALID,0,VALID,94.1251,VALID,0.100563,VALID,23.4523,VALID,355,VALID,0,
2008-04-27, 00:42:04,VALID,1003.85,VALID,0,VALID,94.1938,VALID,0,VALID,23.4523,VALID,355,VALID,0,
2008-04-27, 00:43:04,VALID,1003.82,VALID,0,VALID,94.2243,VALID,0,VALID,23.3921,VALID,355,VALID,0,
2008-04-27, 00:44:04,VALID,1003.8,VALID,0,VALID,94.1862,VALID,0,VALID,23.3939,VALID,355,VALID,0,
2008-04-27, 00:45:04,VALID,1003.8,VALID,0,VALID,94.2624,VALID,0,VALID,23.3744,VALID,355,VALID,0,
2008-04-27, 00:46:04,VALID,1003.78,VALID,0,VALID,94.3387,VALID,0,VALID,23.3337,VALID,355,VALID,0,
2008-04-27, 00:47:04,VALID,1003.75,VALID,0,VALID,94.4837,VALID,0,VALID,23.3355,VALID,355,VALID,0,
2008-04-27, 00:48:04,VALID,1003.77,VALID,0,VALID,94.5295,VALID,0,VALID,23.3355,VALID,355,VALID,0,
2008-04-27, 00:49:04,VALID,1003.73,VALID,0,VALID,94.5829,VALID,0,VALID,23.316,VALID,355,VALID,0,
2008-04-27, 00:50:04,VALID,1003.73,VALID,0,VALID,94.6897,VALID,0,VALID,23.316,VALID,355,VALID,0,
2008-04-27, 00:51:04,VALID,1003.72,VALID,0,VALID,94.7888,VALID,0.100563,VALID,23.3355,VALID,355,VALID,0,
2008-04-27, 00:52:04,VALID,1003.72,VALID,0,VALID,94.8422,VALID,0.100563,VALID,23.2948,VALID,355,VALID,0,
2008-04-27, 00:53:04,VALID,1003.69,VALID,0,VALID,94.8728,VALID,0,VALID,23.2948,VALID,355,VALID,0,
2008-04-27, 00:54:04,VALID,1003.69,VALID,0,VALID,94.949,VALID,0.100563,VALID,23.3355,VALID,355,VALID,0.00429688,
2008-04-27, 00:55:04,VALID,1003.66,VALID,0,VALID,94.9338,VALID,0,VALID,23.3355,VALID,355,VALID,0.181641,
2008-04-27, 00:56:04,VALID,1003.65,VALID,0,VALID,94.8499,VALID,0,VALID,23.316,VALID,355,VALID,0.320703,
2008-04-27, 00:57:04,VALID,1003.66,VALID,0,VALID,94.7507,VALID,0,VALID,23.316,VALID,355,VALID,0.235547,
2008-04-27, 00:58:04,VALID,1003.62,VALID,0,VALID,94.888,VALID,0,VALID,23.3355,VALID,355,VALID,0.160156,
2008-04-27, 00:59:04,VALID,1003.61,VALID,0,VALID,94.9567,VALID,0,VALID,23.3337,VALID,355,VALID,0,
2008-04-27, 01:00:04,VALID,1003.63,VALID,0,VALID,94.8804,VALID,0.100563,VALID,23.355,VALID,355,VALID,0,
2008-04-27, 01:01:04,VALID,1003.64,VALID,0,VALID,95.0024,VALID,0,VALID,23.3939,VALID,355,VALID,0,
2008-04-27, 01:02:04,VALID,1003.63,VALID,0,VALID,94.9262,VALID,0.100563,VALID,23.3921,VALID,355,VALID,0,
2008-04-27, 01:03:04,VALID,1003.65,VALID,0,VALID,95.0253,VALID,0.100563,VALID,23.4311,VALID,355,VALID,0,
2008-04-27, 01:04:04,VALID,1003.62,VALID,0,VALID,94.9719,VALID,0.100563,VALID,23.4912,VALID,355,VALID,0,
2008-04-27, 01:05:04,VALID,1003.61,VALID,0,VALID,94.8499,VALID,0.100563,VALID,23.47,VALID,355,VALID,0,
2008-04-27, 01:06:04,VALID,1003.65,VALID,0,VALID,94.9414,VALID,0.100563,VALID,23.4894,VALID,353,VALID,0.21875,
2008-04-27, 01:07:04,VALID,1003.61,VALID,0,VALID,95.0558,VALID,0.100563,VALID,23.5478,VALID,353,VALID,0.167187,
2008-04-27, 01:08:04,VALID,1003.63,VALID,0,VALID,94.9567,VALID,0.100563,VALID,23.6062,VALID,353,VALID,0.198047,
2008-04-27, 01:09:04,VALID,1003.58,VALID,0,VALID,94.7965,VALID,0,VALID,23.6469,VALID,351,VALID,0.457031,
2008-04-27, 01:10:04,VALID,1003.57,VALID,0,VALID,94.6057,VALID,0,VALID,23.7053,VALID,351,VALID,0.0335938,
2008-04-27, 01:11:04,VALID,1003.54,VALID,0,VALID,94.4837,VALID,0,VALID,23.7443,VALID,351,VALID,0.163281,
2008-04-27, 01:12:04,VALID,1003.52,VALID,0,VALID,94.293,VALID,0,VALID,23.7637,VALID,351,VALID,0,
2008-04-27, 01:13:04,VALID,1003.48,VALID,0,VALID,94.2624,VALID,0,VALID,23.7637,VALID,351,VALID,0,
2008-04-27, 01:14:04,VALID,1003.46,VALID,0,VALID,94.1862,VALID,0,VALID,23.8045,VALID,351,VALID,0.224219,
2008-04-27, 01:15:04,VALID,1003.41,VALID,0,VALID,94.1862,VALID,0,VALID,23.8221,VALID,351,VALID,0.609766,
2008-04-27, 01:16:04,VALID,1003.4,VALID,0,VALID,94.0641,VALID,0,VALID,23.8611,VALID,339,VALID,0.297266,
2008-04-27, 01:17:04,VALID,1003.36,VALID,0,VALID,93.8657,VALID,0,VALID,23.9195,VALID,350,VALID,0.520312,
2008-04-27, 01:18:04,VALID,1003.37,VALID,0,VALID,93.6445,VALID,0,VALID,23.9195,VALID,350,VALID,0.053125,
2008-04-27, 01:19:04,VALID,1003.38,VALID,0,VALID,93.5377,VALID,0,VALID,23.9584,VALID,350,VALID,0.151172,
2008-04-27, 01:20:04,VALID,1003.38,VALID,0,VALID,93.4309,VALID,0,VALID,23.9992,VALID,352,VALID,0.249219,
2008-04-27, 01:21:04,VALID,1003.38,VALID,0,VALID,93.2859,VALID,0,VALID,23.9973,VALID,5,VALID,0.644922,
2008-04-27, 01:22:04,VALID,1003.38,VALID,0,VALID,93.0266,VALID,0,VALID,24.0576,VALID,354,VALID,0.510547,
2008-04-27, 01:23:04,VALID,1003.41,VALID,0,VALID,92.9579,VALID,0,VALID,24.0363,VALID,343,VALID,0.271094,
2008-04-27, 01:24:04,VALID,1003.4,VALID,0,VALID,92.8664,VALID,0,VALID,24.0539,VALID,343,VALID,0.0824219,
2008-04-27, 01:25:04,VALID,1003.41,VALID,0,VALID,92.8511,VALID,0.100563,VALID,24.0539,VALID,343,VALID,0.1625,
2008-04-27, 01:26:04,VALID,1003.42,VALID,0,VALID,92.8206,VALID,0,VALID,24.0539,VALID,347,VALID,0.342969,
2008-04-27, 01:27:04,VALID,1003.41,VALID,0,VALID,92.7977,VALID,0.100563,VALID,24.1142,VALID,341,VALID,0.578906,
2008-04-27, 01:28:04,VALID,1003.44,VALID,0,VALID,92.6451,VALID,0,VALID,24.0929,VALID,351,VALID,0.429688,
2008-04-27, 01:29:04,VALID,1003.41,VALID,0,VALID,92.6299,VALID,0,VALID,24.1123,VALID,350,VALID,0.579297,
2008-04-27, 01:30:04,VALID,1003.4,VALID,0,VALID,92.462,VALID,0.100563,VALID,24.1318,VALID,354,VALID,0.428125,
2008-04-27, 01:31:04,VALID,1003.37,VALID,0,VALID,92.401,VALID,0,VALID,24.1726,VALID,354,VALID,0.341016,
2008-04-27, 01:32:04,VALID,1003.41,VALID,0,VALID,92.3018,VALID,0.100563,VALID,24.1707,VALID,350,VALID,0.504687,
2008-04-27, 01:33:04,VALID,1003.42,VALID,0,VALID,92.3018,VALID,0,VALID,24.1707,VALID,333,VALID,0.411719,
2008-04-27, 01:34:04,VALID,1003.4,VALID,0,VALID,92.2103,VALID,0.100563,VALID,24.1902,VALID,333,VALID,0.325,
2008-04-27, 01:35:04,VALID,1003.42,VALID,0,VALID,92.1264,VALID,0,VALID,24.2115,VALID,336,VALID,0.509375,
2008-04-27, 01:36:04,VALID,1003.44,VALID,0,VALID,92.0348,VALID,0.100563,VALID,24.231,VALID,337,VALID,0.24375,
2008-04-27, 01:37:04,VALID,1003.44,VALID,0,VALID,92.0043,VALID,0.100563,VALID,24.2291,VALID,337,VALID,0,
2008-04-27, 01:38:04,VALID,1003.43,VALID,0,VALID,91.9814,VALID,0.100563,VALID,24.2291,VALID,337,VALID,0,
2008-04-27, 01:39:04,VALID,1003.46,VALID,0,VALID,91.9356,VALID,0,VALID,24.2523,VALID,337,VALID,0.103516,
2008-04-27, 01:40:04,VALID,1003.45,VALID,0,VALID,92.0272,VALID,0,VALID,24.2115,VALID,337,VALID,0.376563,
2008-04-27, 01:41:04,VALID,1003.48,VALID,0,VALID,92.0196,VALID,0,VALID,24.2115,VALID,337,VALID,0.128125,
2008-04-27, 01:42:04,VALID,1003.48,VALID,0,VALID,91.9509,VALID,0,VALID,24.1939,VALID,337,VALID,0.291797,
2008-04-27, 01:43:04,VALID,1003.45,VALID,0,VALID,92.0348,VALID,0,VALID,24.1531,VALID,337,VALID,0.00585938,
2008-04-27, 01:44:04,VALID,1003.43,VALID,0,VALID,92.1264,VALID,0,VALID,24.1142,VALID,337,VALID,0,
2008-04-27, 01:45:04,VALID,1003.44,VALID,0,VALID,92.2408,VALID,0,VALID,24.116,VALID,337,VALID,0.00429688,
2008-04-27, 01:46:04,VALID,1003.43,VALID,0,VALID,92.34,VALID,0,VALID,24.0752,VALID,337,VALID,0.2875,
2008-04-27, 01:47:04,VALID,1003.42,VALID,0,VALID,92.4086,VALID,0,VALID,24.0539,VALID,337,VALID,0.220703,
2008-04-27, 01:48:04,VALID,1003.37,VALID,0,VALID,92.4697,VALID,0,VALID,24.077,VALID,337,VALID,0.261719,
2008-04-27, 01:49:04,VALID,1003.37,VALID,0,VALID,92.5002,VALID,0,VALID,24.0168,VALID,337,VALID,0.233203,
2008-04-27, 01:50:04,VALID,1003.34,VALID,0,VALID,92.7062,VALID,0,VALID,23.9779,VALID,337,VALID,0.186719,
2008-04-27, 01:51:04,VALID,1003.33,VALID,0,VALID,92.7138,VALID,0,VALID,23.9797,VALID,337,VALID,0.109766,
2008-04-27, 01:52:04,VALID,1003.33,VALID,0,VALID,92.9426,VALID,0,VALID,23.9602,VALID,337,VALID,0.270703,
2008-04-27, 01:53:04,VALID,1003.3,VALID,0,VALID,93.1639,VALID,0,VALID,23.9602,VALID,337,VALID,0.232031,
2008-04-27, 01:54:04,VALID,1003.27,VALID,0,VALID,93.2936,VALID,0.100563,VALID,23.9566,VALID,337,VALID,0.489453,
2008-04-27, 01:55:04,VALID,1003.25,VALID,0,VALID,93.1791,VALID,0.100563,VALID,23.9371,VALID,337,VALID,0.114453,
2008-04-27, 01:56:04,VALID,1003.29,VALID,0,VALID,93.4004,VALID,0.100563,VALID,23.9584,VALID,337,VALID,0.0078125,
2008-04-27, 01:57:04,VALID,1003.24,VALID,0,VALID,93.881,VALID,0.100563,VALID,23.9955,VALID,340,VALID,0.56875,
2008-04-27, 01:58:04,VALID,1003.22,VALID,0,VALID,93.8276,VALID,0.100563,VALID,24.0539,VALID,342,VALID,0.291016,
2008-04-27, 01:59:04,VALID,1003.2,VALID,0,VALID,93.7742,VALID,0.100563,VALID,24.0929,VALID,339,VALID,0.471484,
2008-04-27, 02:00:04,VALID,1003.19,VALID,0,VALID,93.7055,VALID,0.100563,VALID,24.1726,VALID,339,VALID,0.306641,
2008-04-27, 02:01:04,VALID,1003.22,VALID,0,VALID,93.6216,VALID,0.100563,VALID,24.1689,VALID,332,VALID,0.096875,
2008-04-27, 02:02:04,VALID,1003.24,VALID,0,VALID,93.4843,VALID,0.100563,VALID,24.2291,VALID,332,VALID,0.372656,
2008-04-27, 02:03:04,VALID,1003.25,VALID,0,VALID,93.3775,VALID,0.100563,VALID,24.2875,VALID,337,VALID,1.13867,
2008-04-27, 02:04:04,VALID,1003.27,VALID,0,VALID,93.1257,VALID,0,VALID,24.3265,VALID,326,VALID,0.128516,
2008-04-27, 02:05:04,VALID,1003.28,VALID,0,VALID,92.9121,VALID,0,VALID,24.3849,VALID,336,VALID,0.467187,
2008-04-27, 02:06:04,VALID,1003.3,VALID,0,VALID,92.729,VALID,0.100563,VALID,24.4451,VALID,356,VALID,0.284766,
2008-04-27, 02:07:04,VALID,1003.31,VALID,0,VALID,92.4925,VALID,0,VALID,24.4628,VALID,331,VALID,0.427734,
2008-04-27, 02:08:04,VALID,1003.31,VALID,0,VALID,92.2561,VALID,0.100563,VALID,24.5212,VALID,341,VALID,0.385938,
2008-04-27, 02:09:04,VALID,1003.3,VALID,0,VALID,91.9814,VALID,0,VALID,24.5425,VALID,341,VALID,0.110156,
2008-04-27, 02:10:04,VALID,1003.3,VALID,0,VALID,91.8899,VALID,0,VALID,24.5638,VALID,333,VALID,0.241016,
2008-04-27, 02:11:04,VALID,1003.3,VALID,0,VALID,91.7449,VALID,0,VALID,24.562,VALID,332,VALID,0.0890625,
2008-04-27, 02:12:04,VALID,1003.31,VALID,0,VALID,91.6076,VALID,0,VALID,24.5833,VALID,332,VALID,0,
2008-04-27, 02:13:04,VALID,1003.31,VALID,0,VALID,91.6305,VALID,0,VALID,24.5425,VALID,332,VALID,0,
2008-04-27, 02:14:04,VALID,1003.27,VALID,0,VALID,91.6152,VALID,0,VALID,24.523,VALID,332,VALID,0,
2008-04-27, 02:15:04,VALID,1003.26,VALID,0,VALID,91.661,VALID,0,VALID,24.5035,VALID,332,VALID,0,
2008-04-27, 02:16:04,VALID,1003.24,VALID,0,VALID,91.7068,VALID,0,VALID,24.5035,VALID,332,VALID,0,
2008-04-27, 02:17:04,VALID,1003.26,VALID,0,VALID,91.7449,VALID,0,VALID,24.4646,VALID,332,VALID,0,
2008-04-27, 02:18:04,VALID,1003.24,VALID,0,VALID,91.5618,VALID,0,VALID,24.408,VALID,332,VALID,0.361328,
2008-04-27, 02:19:04,VALID,1003.25,VALID,0,VALID,91.6076,VALID,0,VALID,24.2912,VALID,332,VALID,0.302734,
2008-04-27, 02:20:04,VALID,1003.23,VALID,0,VALID,91.8517,VALID,0,VALID,24.2133,VALID,332,VALID,0.225,
2008-04-27, 02:21:04,VALID,1003.21,VALID,0,VALID,92.195,VALID,0,VALID,24.1549,VALID,332,VALID,0.140625,
2008-04-27, 02:22:04,VALID,1003.18,VALID,0,VALID,92.462,VALID,0,VALID,24.0947,VALID,332,VALID,0.0015625,
2008-04-27, 02:23:04,VALID,1003.17,VALID,0,VALID,92.5765,VALID,0,VALID,24.0363,VALID,332,VALID,0.200391,
2008-04-27, 02:24:04,VALID,1003.2,VALID,0,VALID,92.668,VALID,0,VALID,23.9973,VALID,332,VALID,0.0824219,
2008-04-27, 02:25:04,VALID,1003.13,VALID,0,VALID,92.9579,VALID,0,VALID,23.9371,VALID,332,VALID,0,
2008-04-27, 02:26:04,VALID,1003.13,VALID,0,VALID,93.1105,VALID,0,VALID,23.8982,VALID,332,VALID,0.337891,
2008-04-27, 02:27:04,VALID,1003.13,VALID,0,VALID,93.2097,VALID,0,VALID,23.8398,VALID,332,VALID,0.263672,
2008-04-27, 02:28:04,VALID,1003.12,VALID,0,VALID,93.3851,VALID,0,VALID,23.8027,VALID,332,VALID,0.244141,
2008-04-27, 02:29:04,VALID,1003.09,VALID,0,VALID,93.553,VALID,0,VALID,23.7637,VALID,332,VALID,0.239063,
2008-04-27, 02:30:04,VALID,1003.1,VALID,0,VALID,93.7055,VALID,0,VALID,23.7443,VALID,332,VALID,0.0175781,
2008-04-27, 02:31:04,VALID,1003.11,VALID,0,VALID,94.0565,VALID,0,VALID,23.7248,VALID,332,VALID,0,
2008-04-27, 02:32:04,VALID,1003.09,VALID,0,VALID,94.1633,VALID,0,VALID,23.7248,VALID,332,VALID,0.254297,
2008-04-27, 02:33:04,VALID,1003.1,VALID,0,VALID,94.1709,VALID,0,VALID,23.7053,VALID,332,VALID,0.125781,
2008-04-27, 02:34:04,VALID,1003.09,VALID,0,VALID,94.2243,VALID,0.100563,VALID,23.6859,VALID,332,VALID,0,
2008-04-27, 02:35:04,VALID,1003.07,VALID,0,VALID,94.2624,VALID,0,VALID,23.6664,VALID,332,VALID,0,
2008-04-27, 02:36:04,VALID,1003.05,VALID,0,VALID,94.56,VALID,0,VALID,23.6257,VALID,332,VALID,0.182422,
2008-04-27, 02:37:04,VALID,1003.06,VALID,0,VALID,94.621,VALID,0.100563,VALID,23.6664,VALID,332,VALID,0.0679687,
2008-04-27, 02:38:04,VALID,1003.07,VALID,0,VALID,94.5981,VALID,0,VALID,23.6469,VALID,332,VALID,0.185547,
2008-04-27, 02:39:04,VALID,1003.06,VALID,0,VALID,94.7888,VALID,0,VALID,23.6664,VALID,332,VALID,0.0140625,
2008-04-27, 02:40:04,VALID,1003.04,VALID,0,VALID,94.7507,VALID,0.100563,VALID,23.6859,VALID,332,VALID,0,
2008-04-27, 02:41:04,VALID,1003.03,VALID,0,VALID,94.8728,VALID,0,VALID,23.6859,VALID,331,VALID,0.371484,
2008-04-27, 02:42:04,VALID,1003.04,VALID,0,VALID,94.8346,VALID,0,VALID,23.7053,VALID,331,VALID,0.150391,
2008-04-27, 02:43:04,VALID,1003.01,VALID,0,VALID,94.827,VALID,0,VALID,23.7035,VALID,331,VALID,0.00195313,
2008-04-27, 02:44:04,VALID,1003.04,VALID,0,VALID,94.8651,VALID,0,VALID,23.7443,VALID,330,VALID,0.194141,
2008-04-27, 02:45:04,VALID,1003.02,VALID,0,VALID,94.9033,VALID,0,VALID,23.7637,VALID,330,VALID,0.0980469,
2008-04-27, 02:46:04,VALID,1003.02,VALID,0,VALID,94.9109,VALID,0,VALID,23.7814,VALID,329,VALID,0.379687,
2008-04-27, 02:47:04,VALID,1003.01,VALID,0,VALID,94.6897,VALID,0,VALID,23.8027,VALID,329,VALID,0.0128906,
2008-04-27, 02:48:04,VALID,1002.99,VALID,0,VALID,94.7278,VALID,0.100563,VALID,23.8416,VALID,328,VALID,0.268359,
2008-04-27, 02:49:04,VALID,1003,VALID,0,VALID,94.5142,VALID,0,VALID,23.8416,VALID,328,VALID,0.0363281,
2008-04-27, 02:50:04,VALID,1003.02,VALID,0,VALID,94.3082,VALID,0,VALID,23.8221,VALID,328,VALID,0.413672,
2008-04-27, 02:51:04,VALID,1003.03,VALID,0,VALID,94.1709,VALID,0,VALID,23.7832,VALID,328,VALID,0.425,
2008-04-27, 02:52:04,VALID,1003.02,VALID,0,VALID,94.0259,VALID,0,VALID,23.7443,VALID,328,VALID,0.398438,
2008-04-27, 02:53:04,VALID,1003.05,VALID,0,VALID,94.0412,VALID,0,VALID,23.6859,VALID,328,VALID,0.480859,
2008-04-27, 02:54:04,VALID,1003.04,VALID,0,VALID,94.0412,VALID,0,VALID,23.6275,VALID,328,VALID,0.335938,
2008-04-27, 02:55:04,VALID,1003.05,VALID,0,VALID,94.1938,VALID,0,VALID,23.608,VALID,328,VALID,0.339063,
2008-04-27, 02:56:04,VALID,1003.05,VALID,0,VALID,94.4913,VALID,0,VALID,23.5885,VALID,328,VALID,0.297266,
2008-04-27, 02:57:04,VALID,1003.05,VALID,0,VALID,94.7736,VALID,0,VALID,23.608,VALID,331,VALID,0.413672,
2008-04-27, 02:58:04,VALID,1003.06,VALID,0,VALID,94.8956,VALID,0,VALID,23.608,VALID,334,VALID,0.163281,
2008-04-27, 02:59:04,VALID,1003.06,VALID,0,VALID,95.0024,VALID,0,VALID,23.6257,VALID,336,VALID,0.111328,
2008-04-27, 03:00:04,VALID,1003.07,VALID,0,VALID,95.1093,VALID,0.100563,VALID,23.6859,VALID,336,VALID,0.00585938,
2008-04-27, 03:01:04,VALID,1003.03,VALID,0,VALID,95.1016,VALID,0,VALID,23.7035,VALID,336,VALID,0.00117188,
2008-04-27, 03:02:04,VALID,1003.06,VALID,0,VALID,95.3457,VALID,0,VALID,23.7637,VALID,349,VALID,0.451953,
2008-04-27, 03:03:04,VALID,1003.04,VALID,0,VALID,95.3381,VALID,0,VALID,23.8221,VALID,347,VALID,0.0535156,
2008-04-27, 03:04:04,VALID,1003.06,VALID,0,VALID,95.1779,VALID,0,VALID,23.8593,VALID,347,VALID,0.0511719,
2008-04-27, 03:05:04,VALID,1003.07,VALID,0,VALID,95.2237,VALID,0.100563,VALID,23.9602,VALID,341,VALID,0.615234,
2008-04-27, 03:06:04,VALID,1003.08,VALID,0,VALID,95.1016,VALID,0,VALID,23.9779,VALID,358,VALID,0.850391,
2008-04-27, 03:07:04,VALID,1003.04,VALID,0,VALID,94.9643,VALID,0,VALID,24.0557,VALID,346,VALID,0.261719,
2008-04-27, 03:08:04,VALID,1003.04,VALID,0,VALID,94.7354,VALID,0.100563,VALID,24.0947,VALID,346,VALID,0.416016,
2008-04-27, 03:09:04,VALID,1003.04,VALID,0,VALID,94.5752,VALID,0,VALID,24.0965,VALID,346,VALID,0.447266,
2008-04-27, 03:10:04,VALID,1003.02,VALID,0,VALID,94.4684,VALID,0,VALID,24.1142,VALID,346,VALID,0.495313,
2008-04-27, 03:11:04,VALID,1002.99,VALID,0,VALID,94.3082,VALID,0,VALID,24.1336,VALID,346,VALID,0.444141,
2008-04-27, 03:12:04,VALID,1002.97,VALID,0,VALID,94.2167,VALID,0,VALID,24.1957,VALID,346,VALID,0.285156,
2008-04-27, 03:13:04,VALID,1002.96,VALID,0,VALID,94.1099,VALID,0,VALID,24.2133,VALID,346,VALID,0.478906,
2008-04-27, 03:14:04,VALID,1002.93,VALID,0,VALID,93.82,VALID,0,VALID,24.1744,VALID,347,VALID,0.317969,
2008-04-27, 03:15:04,VALID,1002.93,VALID,0,VALID,93.7132,VALID,0,VALID,24.1531,VALID,347,VALID,0.371094,
2008-04-27, 03:16:04,VALID,1002.93,VALID,0,VALID,93.5911,VALID,0,VALID,24.1142,VALID,347,VALID,0.286328,
2008-04-27, 03:17:04,VALID,1002.91,VALID,0,VALID,93.5987,VALID,0,VALID,24.0752,VALID,347,VALID,0.4625,
2008-04-27, 03:18:04,VALID,1002.89,VALID,0,VALID,93.6369,VALID,0,VALID,24.0168,VALID,347,VALID,0.371875,
2008-04-27, 03:19:04,VALID,1002.9,VALID,0,VALID,93.8657,VALID,0,VALID,24.0186,VALID,347,VALID,0.440625,
2008-04-27, 03:20:04,VALID,1002.91,VALID,0,VALID,94.2777,VALID,0,VALID,24.0381,VALID,349,VALID,0.634766,
2008-04-27, 03:21:04,VALID,1002.89,VALID,0,VALID,94.2701,VALID,0,VALID,24.0576,VALID,351,VALID,0.566016,
2008-04-27, 03:22:04,VALID,1002.92,VALID,0,VALID,94.2624,VALID,0,VALID,24.0752,VALID,351,VALID,0.424609,
2008-04-27, 03:23:04,VALID,1002.9,VALID,0,VALID,94.2548,VALID,0,VALID,24.116,VALID,351,VALID,0.416016,
2008-04-27, 03:24:04,VALID,1002.88,VALID,0,VALID,94.1556,VALID,0,VALID,24.1142,VALID,351,VALID,0.208984,
2008-04-27, 03:25:04,VALID,1002.87,VALID,0,VALID,94.1328,VALID,0,VALID,24.0929,VALID,351,VALID,0.028125,
2008-04-27, 03:26:04,VALID,1002.82,VALID,0,VALID,94.148,VALID,0,VALID,24.1336,VALID,351,VALID,0.4625,
2008-04-27, 03:27:04,VALID,1002.82,VALID,0,VALID,94.1328,VALID,0,VALID,24.1336,VALID,352,VALID,0.01875,
2008-04-27, 03:28:04,VALID,1002.8,VALID,0,VALID,94.1328,VALID,0,VALID,24.1336,VALID,350,VALID,0.300781,
2008-04-27, 03:29:04,VALID,1002.79,VALID,0,VALID,94.087,VALID,0,VALID,24.1531,VALID,339,VALID,0.377344,
2008-04-27, 03:30:04,VALID,1002.76,VALID,0,VALID,94.087,VALID,0,VALID,24.1513,VALID,358,VALID,0.135937,
2008-04-27, 03:31:04,VALID,1002.76,VALID,0,VALID,94.0488,VALID,0.100563,VALID,24.1707,VALID,358,VALID,0.271875,
2008-04-27, 03:32:04,VALID,1002.77,VALID,0,VALID,93.9802,VALID,0,VALID,24.1902,VALID,359,VALID,0.291016,
2008-04-27, 03:33:04,VALID,1002.77,VALID,0,VALID,93.9649,VALID,0,VALID,24.2291,VALID,333,VALID,0.696875,
2008-04-27, 03:34:04,VALID,1002.76,VALID,0,VALID,93.8047,VALID,0,VALID,24.2486,VALID,337,VALID,0.222656,
2008-04-27, 03:35:04,VALID,1002.76,VALID,0,VALID,93.6979,VALID,0,VALID,24.2486,VALID,337,VALID,0.00507812,
2008-04-27, 03:36:04,VALID,1002.73,VALID,0,VALID,93.6826,VALID,0,VALID,24.2291,VALID,343,VALID,0.509766,
2008-04-27, 03:37:04,VALID,1002.71,VALID,0,VALID,93.6216,VALID,0,VALID,24.2681,VALID,348,VALID,0.180859,
2008-04-27, 03:38:04,VALID,1002.68,VALID,0,VALID,93.5987,VALID,0,VALID,24.2486,VALID,348,VALID,0.0605469,
2008-04-27, 03:39:04,VALID,1002.7,VALID,0,VALID,93.5377,VALID,0,VALID,24.2894,VALID,348,VALID,0.148047,
2008-04-27, 03:40:04,VALID,1002.69,VALID,0,VALID,93.5301,VALID,0,VALID,24.2894,VALID,334,VALID,0.384375,
2008-04-27, 03:41:04,VALID,1002.68,VALID,0,VALID,93.5453,VALID,0,VALID,24.2894,VALID,338,VALID,0.412109,
2008-04-27, 03:42:04,VALID,1002.66,VALID,0,VALID,93.4919,VALID,0.100563,VALID,24.2894,VALID,348,VALID,0.461328,
2008-04-27, 03:43:04,VALID,1002.65,VALID,0,VALID,93.4462,VALID,0,VALID,24.2894,VALID,350,VALID,0.464063,
2008-04-27, 03:44:04,VALID,1002.66,VALID,0,VALID,93.4614,VALID,0,VALID,24.2681,VALID,350,VALID,0.48125,
2008-04-27, 03:45:04,VALID,1002.65,VALID,0,VALID,93.4156,VALID,0,VALID,24.2894,VALID,351,VALID,0.442187,